sat.trackr.live / text

‹ back to catalog

ONEWEB-0119

NORAD 47265 · 2020-100H

PAYLOAD ACTIVE UNKNOWN

§ Identity

Operator
Country
UK
Launch date
2020-12-18
Launch site
VOSTO
Launch vehicle
Mass (kg)
RCS (m²)

Purposes: comms

External: N2YO · Heavens-Above · Gunter

§ Orbital elements

Epoch: 2026-09-19T23:13:49.038816Z

Period
109.72 min
Inclination
87.8975°
Eccentricity
0.0001877
Mean motion
13.12441736 rev/d
Perigee alt
1,212.3 km
Apogee alt
1,215.2 km
Semi-major
7,591.9 km
B*
3.9549e-4
RAAN
331.8472°
Arg perigee
97.5454°
Mean anomaly
262.5888°
Rev number
27,713

§ Raw data

ONEWEB-01191 47265U 20100H   26262.96792869  .00000155  00000+0  39549-3 0  99942 47265  87.8975 331.8472 0001877  97.5454 262.5888 13.12441736277136

JSON: /api/v1/satellites/47265 · /tle

For live sub-satellite position, see the globe view (requires WebGL).

§ Visibility from observer

Set your observer location to see the next 7 days of passes ≥ 10°. The values pass through the URL so the page stays shareable.

No JS? Fill the form by hand. The geolocation button needs JavaScript.